Location: Dreilärchen
(47.9312°N, 8.6113°E)
Time: 02:45:21
(UTC+00:00)

IDEFIX/ARIANE 42P - Pass Details

Date: 26 May 2022
Orbit: 785 x 802 km, 98.4° (Epoch: 26 June)

Event Time Altitude Azimuth Distance (km) Brightness Sun altitude
Rises 01:37:52 0° 16° (NNE) 3,325 7.3 -14.6°
Reaches altitude 10° 01:40:14 10° 18° (NNE) 2,390 6.3 -14.4°
Maximum altitude 01:45:30 70° 102° (ESE) 855 2.8 -13.9°
Enters shadow 01:49:54 15° 185° (S) 2,048 4.2 -13.5°
